CANAVERAL NM East of Cape Canaveral, FL (41009)

Conditions for Tuesday

Daily
Weekly
Monthly
Marine Data Graph

Marine & Boating Location Search

Enter a coastal zip code for marine weather.

General Information

Location: 28.522 North -80.188 West
Buoy Type: 3-meter discus buoy
Buoy Hull: 3D86
Payload: AMPS payload
Owned by: NDBC
Windspeed: Measured by obtained from anemometer
Sea Surface: Measured by Intake

Weather and Wave Data

Time Temp Humidity Wind Dominant Wave Wind Wave Wave Swell Pressure
  Air
(°F)
Water
(°F)
  Dir Speed
(kts)
Speed
(mph)
Period
(sec)
Height
(ft)
Range
(ft)
Period
(sec)
Height
(ft)
Range
(ft)
Period
(sec)
Height
(ft)
Range
(ft)
Atmo.
(in)
Tend.
(in)
20:10 83 84 68 SSE 7.8 8.9 - - - - - - 29.99 -
20:40 82 84 73 South 11.7 13.4 - - - - - - 30.00 -
20:50 82 84 72 South 11.7 13.4 3 1.64 exactly 1.6 3 1.64 0.82 - 2.46 8 1.64 0.82 - 2.46 30.00 -
21:10 82 84 72 South 11.7 13.4 - - - - - - 30.00 -
21:20 82 84 71 South 11.7 13.4 - - - - - - 30.00 -
21:30 82 84 69 South 11.7 13.4 - - - - - - 30.00 -
21:40 82 83 70 SSE 9.7 11.2 - - - - - - 30.00 -
21:50 82 84 69 SSE 9.7 11.2 8 1.97 exactly 2.0 4 1.64 0.82 - 2.46 8 1.64 0.82 - 2.46 30.01 -
22:10 82 83 70 SSE 9.7 11.2 - - - - - - 30.01 -
22:20 82 83 69 SSE 9.7 11.2 - - - - - - 30.01 -
22:30 82 83 69 SSE 7.8 8.9 - - - - - - 30.01 -
22:50 82 83 68 South 7.8 8.9 4 2.30 exactly 2.3 4 1.64 0.82 - 2.46 4 1.64 0.82 - 2.46 30.01 -
23:10 82 83 70 South 11.7 13.4 - - - - - - 30.00 -
23:20 82 83 72 South 9.7 11.2 - - - - - - 30.00 -
23:30 82 83 70 South 9.7 11.2 - - - - - - 30.00 -
23:40 82 83 70 South 9.7 11.2 - - - - - - 30.00 -
00:10 82 83 69 South 9.7 11.2 - - - - - - 30.00 -
00:20 82 83 70 South 7.8 8.9 - - - - - - 29.99 -
00:30 82 84 70 South 7.8 8.9 - - - - - - 29.99 -
00:40 82 84 70 South 9.7 11.2 - - - - - - 29.99 -
01:10 82 84 72 South 5.8 6.7 - - - - - - 29.99 -
01:20 82 84 72 South 5.8 6.7 - - - - - - 29.99 -
01:40 82 84 72 South 5.8 6.7 - - - - - - 29.98 -
01:50 82 84 72 South 5.8 6.7 6 2.95 exactly 3.0 4 1.64 0.82 - 2.46 6 3.28 2.46 - 4.10 29.98 -
02:10 82 84 72 SSW 5.8 6.7 - - - - - - 29.98 -
02:20 82 84 72 SW 5.8 6.7 - - - - - - 29.98 -
02:30 82 84 72 SSW 5.8 6.7 - - - - - - 29.98 -
02:40 82 84 72 SSW 5.8 6.7 - - - - - - 29.98 -
02:50 82 84 72 SW 5.8 6.7 8 2.95 exactly 3.0 4 1.64 0.82 - 2.46 8 3.28 2.46 - 4.10 29.97 -
03:10 82 84 71 SW 5.8 6.7 - - - - - - 29.97 -
03:20 82 84 72 SW 5.8 6.7 - - - - - - 29.97 -
03:30 82 84 73 WSW 5.8 6.7 - - - - - - 29.96 -
03:40 82 84 73 WSW 7.8 8.9 - - - - - - 29.96 -
03:50 81 84 75 WSW 7.8 8.9 8 2.95 exactly 3.0 4 1.64 0.82 - 2.46 8 3.28 2.46 - 4.10 29.96 -
04:10 81 84 75 West 7.8 8.9 - - - - - - 29.97 -
04:20 81 84 75 West 7.8 8.9 - - - - - - 29.96 -
04:30 81 84 75 West 7.8 8.9 - - - - - - 29.96 -
04:40 81 84 75 WNW 7.8 8.9 - - - - - - 29.96 -
04:50 81 84 75 WNW 5.8 6.7 8 2.95 exactly 3.0 4 1.64 0.82 - 2.46 8 3.28 2.46 - 4.10 29.95 -
05:00 81 83 74 WNW 5.8 6.7 - - - - - - 29.95 -0.03
05:10 81 84 73 WNW 3.9 4.5 - - - - - - 29.95 -
05:30 79 83 76 ESE 13.6 15.7 - - - - - - 29.97 -
05:40 76 83 82 SE 17.5 20.1 - - - - - - 29.99 -
05:50 76 83 85 SE 13.6 15.7 7 2.62 exactly 2.6 6 1.64 0.82 - 2.46 7 1.64 0.82 - 2.46 29.98 -
06:20 76 83 79 SE 3.9 4.5 - - - - - - 29.93 -
06:30 76 83 79 SE 1.9 2.2 - - - - - - 29.93 -
06:50 77 84 78 NNE 3.9 4.5 8 2.62 exactly 2.6 4 1.64 0.82 - 2.46 8 1.64 0.82 - 2.46 29.93 -
07:00 77 84 80 NNE 3.9 4.5 - - - - - - 29.94 -0.02
07:10 78 84 77 ENE 3.9 4.5 - - - - - - 29.94 -
07:50 78 84 75 SSE 1.9 2.2 7 2.62 exactly 2.6 4 1.64 0.82 - 2.46 7 1.64 0.82 - 2.46 29.95 -
08:20 78 84 77 - 0.0 0.0 - - - - - - 29.95 -
08:30 78 84 76 - 0.0 0.0 - - - - - - 29.96 -
08:50 79 84 72 - 0.0 0.0 7 2.62 exactly 2.6 3 1.64 0.82 - 2.46 7 1.64 0.82 - 2.46 29.95 -
09:10 79 84 73 South 1.9 2.2 - - - - - - 29.97 -
09:20 79 84 72 SSW 1.9 2.2 - - - - - - 29.97 -
09:30 79 84 72 South 1.9 2.2 - - - - - - 29.97 -
09:50 80 84 67 SSE 1.9 2.2 6 2.95 exactly 3.0 3 1.64 0.82 - 2.46 6 3.28 2.46 - 4.10 29.97 -
10:30 80 84 69 SSW 5.8 6.7 - - - - - - 29.98 -
10:40 80 84 68 SSW 5.8 6.7 - - - - - - 29.98 -
10:50 81 84 66 SSW 7.8 8.9 7 3.28 exactly 3.3 4 1.64 0.82 - 2.46 7 3.28 2.46 - 4.10 29.99 -
11:10 81 84 69 SSW 7.8 8.9 - - - - - - 29.99 -
11:20 81 84 71 SSW 7.8 8.9 - - - - - - 29.99 -
11:30 81 84 71 SW 7.8 8.9 - - - - - - 29.99 -
11:40 81 84 72 SW 7.8 8.9 - - - - - - 29.99 -
11:50 81 84 72 SW 7.8 8.9 7 2.30 exactly 2.3 - - - 7 1.64 0.82 - 2.46 29.99 -
12:10 81 83 71 SW 7.8 8.9 - - - - - - 29.98 -
12:20 81 83 71 SW 7.8 8.9 - - - - - - 29.98 -
12:30 81 83 72 SW 7.8 8.9 - - - - - - 29.97 -
12:50 81 83 74 SSW 7.8 8.9 6 2.62 exactly 2.6 - - - 6 3.28 2.46 - 4.10 29.97 -
13:10 81 83 71 SSW 9.7 11.2 - - - - - - 29.97 -
13:40 81 83 72 South 7.8 8.9 - - - - - - 29.96 -
13:50 81 83 72 South 7.8 8.9 7 2.30 exactly 2.3 - - - 7 1.64 0.82 - 2.46 29.96 -
14:20 81 83 70 South 7.8 8.9 - - - - - - 29.95 -
14:30 81 83 72 South 7.8 8.9 - - - - - - 29.95 -
14:40 81 83 74 South 7.8 8.9 - - - - - - 29.94 -
14:50 81 83 72 South 7.8 8.9 7 2.95 exactly 3.0 - - - 7 3.28 2.46 - 4.10 29.94 -
15:10 81 83 71 South 9.7 11.2 - - - - - - 29.93 -
15:20 81 83 72 South 9.7 11.2 - - - - - - 29.93 -
15:30 81 83 73 South 7.8 8.9 - - - - - - 29.93 -
15:40 82 83 70 South 7.8 8.9 - - - - - - 29.92 -
15:50 81 83 73 South 7.8 8.9 6 2.62 exactly 2.6 - - - 6 3.28 2.46 - 4.10 29.92 -
16:00 82 83 71 SSE 7.8 8.9 - - - - - - 29.91 -0.05
16:10 81 83 74 SSE 7.8 8.9 - - - - - - 29.91 -
16:30 81 83 75 SSE 11.7 13.4 - - - - - - 29.92 -
16:50 82 83 70 SSE 11.7 13.4 7 2.30 exactly 2.3 5 1.64 0.82 - 2.46 7 1.64 0.82 - 2.46 29.92 -
17:10 81 83 73 SSW 19.4 22.4 - - - - - - 29.93 -
17:20 80 83 69 SW 19.4 22.4 - - - - - - 29.93 -
17:30 79 83 72 SW 17.5 20.1 - - - - - - 29.92 -
17:40 79 83 73 SSW 13.6 15.7 - - - - - - 29.91 -
17:50 79 83 76 SSW 13.6 15.7 7 2.30 exactly 2.3 3 1.64 0.82 - 2.46 7 1.64 0.82 - 2.46 29.92 -
18:00 80 83 75 SSW 15.6 17.9 - - - - - - 29.92 -0.02
18:10 80 83 74 SSW 15.6 17.9 - - - - - - 29.91 -
18:20 79 83 77 SSW 15.6 17.9 - - - - - - 29.91 -
18:30 79 83 76 South 13.6 15.7 - - - - - - 29.92 -
18:40 79 83 77 SSW 13.6 15.7 - - - - - - 29.92 -
18:50 80 83 74 SSW 15.6 17.9 6 2.62 exactly 2.6 3 1.64 0.82 - 2.46 6 1.64 0.82 - 2.46 29.92 -
19:10 80 83 75 SSW 15.6 17.9 - - - - - - 29.92 -
19:20 80 83 75 SSW 13.6 15.7 - - - - - - 29.92 -
19:30 81 83 72 SSW 15.6 17.9 - - - - - - 29.91 -
19:40 81 83 72 SSW 15.6 17.9 - - - - - - 29.91 -
19:50 81 83 73 SSW 15.6 17.9 4 3.28 exactly 3.3 4 3.28 2.46 - 4.10 7 1.64 0.82 - 2.46 29.91 -
20:20 81 82 74 SW 13.6 15.7 - - - - - - 29.92 -
20:30 81 82 75 SSW 13.6 15.7 - - - - - - 29.92 -
20:40 81 82 75 SW 13.6 15.7 - - - - - - 29.93 -
20:50 81 82 75 SW 13.6 15.7 4 3.28 exactly 3.3 4 3.28 2.46 - 4.10 7 1.64 0.82 - 2.46 29.93 -
21:10 82 82 72 SW 13.6 15.7 - - - - - - 29.93 -
21:20 82 82 72 SW 13.6 15.7 - - - - - - 29.94 -
21:30 81 82 76 SW 13.6 15.7 - - - - - - 29.94 -
21:40 81 82 75 SW 13.6 15.7 - - - - - - 29.94 -
22:00 82 82 75 SW 13.6 15.7 - - - - - - 29.95 +0.03
22:10 81 82 78 SSW 13.6 15.7 - - - - - - 29.96 -
22:20 81 82 78 SSW 11.7 13.4 - - - - - - 29.95 -
22:30 81 82 77 SSW 11.7 13.4 - - - - - - 29.95 -
22:40 81 82 77 SSW 11.7 13.4 - - - - - - 29.96 -
22:50 81 82 77 SSW 11.7 13.4 6 2.62 exactly 2.6 3 1.64 0.82 - 2.46 6 1.64 0.82 - 2.46 29.96 -
23:30 82 82 73 SSW 11.7 13.4 - - - - - - 29.97 -
23:40 82 82 72 SSW 11.7 13.4 - - - - - - 29.98 -
23:50 82 82 72 SSW 11.7 13.4 6 2.62 exactly 2.6 4 1.64 0.82 - 2.46 6 1.64 0.82 - 2.46 29.98 -
00:30 82 82 68 SSW 11.7 13.4 - - - - - - 29.97 -
00:40 82 82 68 SSW 11.7 13.4 - - - - - - 29.97 -
00:50 82 82 68 SW 11.7 13.4 6 2.62 exactly 2.6 3 1.64 0.82 - 2.46 6 1.64 0.82 - 2.46 29.97 -
01:10 82 82 68 SSW 9.7 11.2 - - - - - - 29.96 -
01:40 81 82 74 SSW 11.7 13.4 - - - - - - 29.95 -
01:50 81 82 75 SSW 9.7 11.2 7 2.30 exactly 2.3 3 1.64 0.82 - 2.46 7 1.64 0.82 - 2.46 29.94 -
02:10 81 82 75 SSW 11.7 13.4 - - - - - - 29.94 -
02:20 81 82 75 SW 11.7 13.4 - - - - - - 29.94 -
02:30 81 82 74 SW 11.7 13.4 - - - - - - 29.94 -
02:40 81 82 73 SW 11.7 13.4 - - - - - - 29.94 -
02:50 81 82 74 SW 11.7 13.4 7 2.30 exactly 2.3 3 1.64 0.82 - 2.46 7 1.64 0.82 - 2.46 29.94 -
03:10 81 82 73 SW 11.7 13.4 - - - - - - 29.94 -
03:20 81 82 73 SW 11.7 13.4 - - - - - - 29.94 -
03:30 81 82 73 SW 11.7 13.4 - - - - - - 29.94 -

Detailed Wave Spectra

Time Water Depth Wave Height Spectral Peak Period Average Wave Period Sampling Interval Wave Record
20:00 138 ft 1.87 ft 3.4 sec 3.6 sec 0.6 sec 2400 sec
21:00 138 ft 1.77 ft 3.1 sec 3.6 sec 0.6 sec 2400 sec
22:00 138 ft 2.00 ft 7.7 sec 3.8 sec 0.6 sec 2400 sec
23:00 138 ft 2.17 ft 4.3 sec 4.1 sec 0.6 sec 2400 sec
00:00 138 ft 2.66 ft 5.0 sec 4.3 sec 0.6 sec 2400 sec
02:00 138 ft 2.89 ft 5.9 sec 4.7 sec 0.6 sec 2400 sec
03:00 138 ft 3.02 ft 8.3 sec 4.8 sec 0.6 sec 2400 sec
04:00 138 ft 3.05 ft 7.7 sec 5.1 sec 0.6 sec 2400 sec
08:00 138 ft 2.56 ft 7.1 sec 4.6 sec 0.6 sec 2400 sec
09:00 138 ft 2.56 ft 7.1 sec 4.8 sec 0.6 sec 2400 sec
10:00 138 ft 2.85 ft 5.6 sec 4.9 sec 0.6 sec 2400 sec
11:00 138 ft 3.12 ft 7.1 sec 5.1 sec 0.6 sec 2400 sec
12:00 138 ft 2.40 ft 6.7 sec 5.3 sec 0.6 sec 2400 sec
14:00 138 ft 2.36 ft 6.7 sec 5.3 sec 0.6 sec 2400 sec
15:00 138 ft 2.89 ft 7.1 sec 5.5 sec 0.6 sec 2400 sec
17:00 138 ft 2.40 ft 7.1 sec 5.3 sec 0.6 sec 2400 sec
19:00 138 ft 2.76 ft 6.3 sec 3.9 sec 0.6 sec 2400 sec
20:00 138 ft 3.38 ft 3.8 sec 3.9 sec 0.6 sec 2400 sec
21:00 138 ft 3.25 ft 4.2 sec 3.9 sec 0.6 sec 2400 sec
23:00 138 ft 2.69 ft 6.3 sec 3.9 sec 0.6 sec 2400 sec
01:00 138 ft 2.53 ft 6.3 sec 3.9 sec 0.6 sec 2400 sec
02:00 138 ft 2.40 ft 6.7 sec 3.9 sec 0.6 sec 2400 sec
03:00 138 ft 2.23 ft 7.1 sec 3.9 sec 0.6 sec 2400 sec